User: anonymous   Login
Location: Unspecified
(0.0000°N, 0.0000°E)
Time: 01:15:24
(UTC+02:00)
Language:

Cosmos 1538 Rocket - Orbit

View from above orbital plane
View from above orbital plane
View from above satellite
View from above satellite

Ground track
Ground track

The orbit data is extracted from the following two-line orbital elements,

1 14760U 84019B   17141.69996757 +.00000123 +00000-0 +51290-4 0  9999
2 14760 074.0417 170.4412 0027204 034.5129 082.7865 14.35816647739786
Epoch (UTC): 21 May 2017 16:47:57
Eccentricity: 0.0027204
inclination: 74.0417°
perigee height: 753 km
apogee height: 792 km
right ascension of ascending node: 170.4412°
argument of perigee: 34.5129°
revolutions per day: 14.35816647
mean anomaly at epoch: 82.7865°
orbit number at epoch: 73978

The dashed part of the orbit path shows where the satellite is in the earth's shadow,  

DLR